Location: Newark
(35.2672°N, 80.7344°W)
Time: 14:59:58
(UTC+00:00)

Tiros 1 - Pass Details

Date: 25 January 2020
Orbit: 631 x 664 km, 48.4° (Epoch: 23 February)

Event Time Altitude Azimuth Distance (km) Brightness Sun altitude
Rises 22:36:30 0° 311° (NW) 2,971 10.9 0.5°
Reaches altitude 10° 22:39:07 10° 323° (NW) 2,064 10.0 0.0°
Maximum altitude 22:43:14 28° 23° (NNE) 1,224 8.2 -0.8°
Drops below altitude 10° 22:47:23 10° 83° (E) 2,073 9.1 -1.5°
Sets 22:50:00 0° 94° (E) 2,986 10.0 -2.0°
